Location: Bonningues
(50.7927°N, 2.0150°E)
Time: 15:26:43
(UTC+00:00)

Sich 1 - Pass Details

Date: 08 August 2020
Orbit: 593 x 626 km, 82.5° (Epoch: 18 September)

Event Time Altitude Azimuth Distance (km) Brightness Sun altitude
Rises 19:58:50 0° 168° (SSE) 2,895 6.1 -5.5°
Reaches altitude 10° 20:01:08 10° 160° (SSE) 1,996 5.2 -5.8°
Maximum altitude 20:05:16 39° 92° (E) 941 3.6 -6.3°
Drops below altitude 10° 20:09:25 10° 24° (NNE) 2,014 5.9 -6.9°
Sets 20:11:46 0° 17° (NNE) 2,925 6.8 -7.2°
